Weather History for KDXX - October, 2012

Change the Weather History Date:

Tuesday, October 23, 2012

  Actual Average (KAQP) Record (KAQP)
Temperature  
Mean Temperature 56 °F -  
Max Temperature 62 °F 51 °F 73 °F (1998)
Min Temperature 51 °F 32 °F 23 °F (2002)
Degree Days  
Heating Degree Days 8    
Growing Degree Days 6 (Base 50)    
Moisture  
Dew Point 51 °F    
Average Humidity 85    
Maximum Humidity 94    
Minimum Humidity 77    
Precipitation  
Precipitation 0.00 in - - ()
Sea Level Pressure  
Sea Level Pressure 29.72 in    
Wind  
Wind Speed 6 mph (SE)    
Max Wind Speed 9 mph    
Max Gust Speed -    
Visibility 4 miles    
Events Fog , Rain    
Averages and records for this station are not official NWS values.
T = Trace of Precipitation, MM = Missing Value Source: NWS Daily Summary

Daily Weather History Graph

Daily Weather History Graph

Search for Another Location

Airport or City:

Trip Planner

Search our weather history database for the weather conditions in past years. The results will help you decide how hot, cold, wet, or windy it might be!

Date:

Astronomy

Oct. 23, 2012 Rise Set
Actual Time 7:51 AM CDT 6:25 PM CDT
Civil Twilight 7:21 AM CDT 6:55 PM CDT
Nautical Twilight 6:47 AM CDT 7:29 PM CDT
Astronomical Twilight 6:13 AM CDT 8:03 PM CDT
Moon 3:23 PM CDT 1:29 AM CDT
Length of Visible Light 11h 33m
Length of Day
10h 33m
Waxing Gibbous, 67% of the Moon is Illuminated
Oct 23
Waxing Gibbous
Oct 29
Full
Nov 6
Last Quarter
Nov 13
New
Nov 20
First Quarter

Hourly Weather History & Observations

Time (CDT) Temp. Dew Point Humidity Pressure Visibility Wind Dir Wind Speed Gust Speed Precip Events Conditions
12:13 AM 51.8 °F 46.4 °F 82% 29.82 in 10.0 mi East 6.9 mph - N/A   Scattered Clouds
12:34 AM 51.8 °F 46.4 °F 82% 29.82 in 10.0 mi East 6.9 mph - N/A   Mostly Cloudy
1:13 AM 51.8 °F 46.4 °F 82% 29.80 in 10.0 mi East 4.6 mph - N/A   Overcast
1:34 AM 51.8 °F 46.4 °F 82% 29.80 in 10.0 mi East 4.6 mph - N/A Rain Rain
1:53 AM 51.8 °F 46.4 °F 82% 29.79 in 7.0 mi East 6.9 mph - N/A   Light Drizzle
2:14 AM 51.8 °F 46.4 °F 82% 29.78 in 10.0 mi Calm Calm - N/A   Scattered Clouds
2:54 AM 51.8 °F 46.4 °F 82% 29.77 in 10.0 mi East 5.8 mph - N/A   Scattered Clouds
3:14 AM 51.8 °F 48.2 °F 88% 29.75 in 10.0 mi East 9.2 mph - N/A   Scattered Clouds
3:33 AM 51.8 °F 48.2 °F 88% 29.75 in 3.0 mi East 9.2 mph - N/A   Scattered Clouds
3:54 AM 51.8 °F 48.2 °F 88% 29.75 in 2.0 mi East 5.8 mph - N/A   Mist
4:14 AM 51.8 °F 48.2 °F 88% 29.74 in 1.5 mi East 6.9 mph - N/A   Mist
4:33 AM 51.8 °F 48.2 °F 88% 29.74 in 2.5 mi East 6.9 mph - N/A Rain Rain
5:14 AM 51.8 °F 48.2 °F 88% 29.75 in 1.5 mi East 4.6 mph - N/A   Mist
5:34 AM 51.8 °F 48.2 °F 88% 29.74 in 1.0 mi East 5.8 mph - N/A   Overcast
5:53 AM 51.8 °F 48.2 °F 88% 29.74 in 0.8 mi ENE 6.9 mph - N/A   Overcast
6:34 AM 51.8 °F 48.2 °F 88% 29.74 in 0.8 mi ENE 5.8 mph - N/A   Overcast
6:53 AM 51.8 °F 48.2 °F 88% 29.73 in 0.5 mi ENE 6.9 mph - N/A Fog Fog
7:14 AM 51.8 °F 48.2 °F 88% 29.72 in 0.5 mi ENE 4.6 mph - N/A Fog Fog
7:34 AM 51.8 °F 48.2 °F 88% 29.71 in 0.5 mi East 5.8 mph - N/A Fog Fog
7:53 AM 51.8 °F 48.2 °F 88% 29.71 in 0.5 mi East 5.8 mph - N/A Fog Fog
8:14 AM 51.8 °F 48.2 °F 88% 29.70 in 0.5 mi East 4.6 mph - N/A Fog Fog
8:33 AM 51.8 °F 48.2 °F 88% 29.70 in 0.5 mi East 3.5 mph - N/A Fog Fog
8:54 AM 51.8 °F 50.0 °F 94% 29.70 in 0.2 mi East 4.6 mph - N/A Fog Fog
9:14 AM 51.8 °F 50.0 °F 94% 29.71 in 0.2 mi East 3.5 mph - N/A Fog Fog
9:33 AM 51.8 °F - N/A% 29.70 in 0.2 mi ENE 4.6 mph - N/A Fog Fog
9:54 AM 51.8 °F - N/A% 29.71 in 0.2 mi NE 3.5 mph - N/A Fog Fog
10:14 AM 51.8 °F - N/A% 29.71 in 0.2 mi Calm Calm - N/A Fog Fog
10:54 AM 53.6 °F - N/A% 29.70 in 0.2 mi East 4.6 mph - N/A Fog Fog
11:14 AM 53.6 °F - N/A% 29.70 in 0.2 mi ESE 4.6 mph - N/A Fog Fog
11:33 AM 53.6 °F - N/A% 29.69 in 0.5 mi SE 5.8 mph - N/A Fog Fog
11:54 AM 55.4 °F - N/A% 29.68 in 0.5 mi SSE 4.6 mph - N/A Fog Fog
12:14 PM 55.4 °F - N/A% 29.67 in 0.5 mi SSE 4.6 mph - N/A Fog Fog
12:33 PM 55.4 °F - N/A% 29.67 in 1.2 mi SSE 6.9 mph - N/A   Mostly Cloudy
12:54 PM 57.2 °F - N/A% 29.67 in 1.5 mi South 5.8 mph - N/A   Mostly Cloudy
1:33 PM 57.2 °F 55.4 °F 94% 29.65 in 2.5 mi South 6.9 mph - N/A   Mist
1:54 PM 57.2 °F 55.4 °F 94% 29.65 in 2.0 mi SSW 4.6 mph - N/A   Mist
2:14 PM 57.2 °F 55.4 °F 94% 29.66 in 2.5 mi SSW 5.8 mph - N/A   Mist
2:33 PM 57.2 °F 55.4 °F 94% 29.66 in 3.0 mi SSW 4.6 mph - N/A   Mist
2:54 PM 59.0 °F 55.4 °F 88% 29.65 in 4.0 mi SSE 3.5 mph - N/A   Clear
3:13 PM 59.0 °F 55.4 °F 88% 29.64 in 4.0 mi SSE 5.8 mph - N/A   Clear
3:34 PM 60.8 °F 55.4 °F 82% 29.64 in 4.0 mi SSE 3.5 mph - N/A   Clear
3:54 PM 60.8 °F 55.4 °F 82% 29.63 in 5.0 mi Calm Calm - N/A   Haze
4:13 PM 62.6 °F 57.2 °F 82% 29.64 in 5.0 mi Calm Calm - N/A   Haze
4:34 PM 62.6 °F 57.2 °F 82% 29.65 in 5.0 mi Calm Calm - N/A   Haze
4:54 PM 62.6 °F 57.2 °F 82% 29.66 in 5.0 mi South 3.5 mph - N/A   Haze
5:13 PM 60.8 °F 55.4 °F 82% 29.67 in 4.0 mi South 6.9 mph - N/A   Haze
5:33 PM 60.8 °F 55.4 °F 82% 29.66 in 4.0 mi South 8.1 mph - N/A   Haze
5:54 PM 60.8 °F 55.4 °F 82% 29.67 in 5.0 mi SSW 6.9 mph - N/A   Haze
6:13 PM 60.8 °F 55.4 °F 82% 29.67 in 5.0 mi SSW 3.5 mph - N/A   Haze
6:33 PM 60.8 °F 55.4 °F 82% 29.68 in 5.0 mi SSW 4.6 mph - N/A   Haze
6:54 PM 60.8 °F 53.6 °F 77% 29.69 in 7.0 mi SSW 4.6 mph - N/A   Clear
7:13 PM 59.0 °F 53.6 °F 82% 29.70 in 7.0 mi SSW 6.9 mph - N/A   Clear
7:33 PM 59.0 °F 53.6 °F 82% 29.71 in 7.0 mi SW 9.2 mph - N/A   Scattered Clouds
7:54 PM 57.2 °F 53.6 °F 88% 29.73 in 7.0 mi SW 8.1 mph - N/A   Scattered Clouds
8:13 PM 59.0 °F 53.6 °F 82% 29.74 in 7.0 mi WSW 9.2 mph - N/A   Clear
8:34 PM 59.0 °F 53.6 °F 82% 29.74 in 10.0 mi West 9.2 mph - N/A   Clear
8:54 PM 59.0 °F 51.8 °F 77% 29.74 in 10.0 mi West 8.1 mph - N/A   Clear
9:13 PM 59.0 °F 51.8 °F 77% 29.75 in 10.0 mi West 8.1 mph - N/A   Scattered Clouds
9:34 PM 57.2 °F 51.8 °F 82% 29.76 in 10.0 mi West 9.2 mph - N/A   Scattered Clouds
9:54 PM 57.2 °F 51.8 °F 82% 29.76 in 10.0 mi West 5.8 mph - N/A   Clear
10:13 PM 57.2 °F 51.8 °F 82% 29.76 in 10.0 mi SW 3.5 mph - N/A   Scattered Clouds
10:34 PM 55.4 °F 51.8 °F 88% 29.76 in 10.0 mi South 4.6 mph - N/A   Mostly Cloudy
10:54 PM 53.6 °F 50.0 °F 88% 29.77 in 10.0 mi SW 5.8 mph - N/A   Clear
11:34 PM 51.8 °F 48.2 °F 88% 29.79 in 7.0 mi West 5.8 mph - N/A   Scattered Clouds
11:54 PM 53.6 °F 50.0 °F 88% 29.80 in 10.0 mi West 5.8 mph - N/A   Scattered Clouds